Location: Newark
(63.1158°N, 8.1461°E)
Time: 06:24:41
(UTC+00:00)

Envisat - Pass Details

Date: 15 December 2019
Orbit: 764 x 766 km, 98.1° (Epoch: 26 January)

Event Time Altitude Azimuth Distance (km) Brightness Sun altitude
Rises 16:15:13 0° 146° (SE) 3,231 6.1 -13.4°
Reaches altitude 10° 16:17:32 10° 143° (SE) 2,308 5.4 -13.7°
Maximum altitude 16:22:33 63° 64° (ENE) 858 3.0 -14.2°
Drops below altitude 10° 16:27:36 10° 344° (NNW) 2,321 5.4 -14.7°
Sets 16:29:56 0° 342° (NNW) 3,251 6.2 -14.9°
